Stations météo

réclame
Mon MeteoGroup
Kielder Castle, Grande-Bretagne (99186): Température de l'air & dewpoint: 13.09.2019 05:00:00 - 19.09.2019 05:00:00 (BST)Kielder Castle, Grande-Bretagne (99186): Température de l'air -20cm & Température de l'air -100cm: 13.09.2019 05:00:00 - 19.09.2019 05:00:00 (BST)Kielder Castle, Grande-Bretagne (99186): Quantités de précipitations: 13.09.2019 05:00:00 - 19.09.2019 05:00:00 (BST)
Date & Time tt [°C] td [°C] tt -20cm [°C] tt -100cm [°C] rr [mm]
19.09.2019 05:00:00 8,2 8,1 - - 0,0
19.09.2019 04:00:00 8,0 7,9 - - 0,0
19.09.2019 03:00:00 7,9 7,6 - - 0,0
19.09.2019 02:00:00 8,5 8,0 - - 0,0
19.09.2019 01:00:00 10,4 9,8 - - 0,0
19.09.2019 00:00:00 11,2 10,4 - - 0,0
18.09.2019 23:00:00 11,8 10,6 - - 0,0
18.09.2019 22:00:00 11,9 10,7 - - 0,0
18.09.2019 21:00:00 12,2 10,4 - - 0,0
18.09.2019 20:00:00 12,3 10,1 - - 0,0
18.09.2019 19:00:00 12,9 10,1 - - 0,0
18.09.2019 18:00:00 14,0 10,4 - - 0,0
18.09.2019 17:00:00 14,5 9,6 - - 0,0
18.09.2019 16:00:00 15,6 9,5 - - 0,0
18.09.2019 15:00:00 15,2 8,3 - - 0,0
18.09.2019 14:00:00 13,2 8,0 - - 0,0
18.09.2019 13:00:00 12,8 7,1 - - 0,0
18.09.2019 12:00:00 12,7 6,5 - - 0,0
18.09.2019 11:00:00 10,9 6,0 - - 0,0
18.09.2019 10:00:00 9,4 6,3 13,0 13,9 0,0
18.09.2019 09:00:00 7,8 5,9 - - 0,0
18.09.2019 08:00:00 6,0 5,5 - - 0,0
18.09.2019 07:00:00 5,4 4,9 - - 0,0
18.09.2019 06:00:00 4,6 4,1 - - 0,0
18.09.2019 05:00:00 4,7 4,2 - - 0,0
18.09.2019 04:00:00 4,2 3,4 - - 0,0
18.09.2019 03:00:00 4,6 3,7 - - 0,0
18.09.2019 02:00:00 4,3 3,3 - - 0,0
18.09.2019 01:00:00 4,0 3,0 - - 0,0
18.09.2019 00:00:00 4,5 3,5 - - 0,0
17.09.2019 23:00:00 4,9 4,0 - - 0,0
17.09.2019 22:00:00 6,9 5,3 - - 0,0
17.09.2019 21:00:00 9,1 5,2 - - 0,0
17.09.2019 20:00:00 9,3 6,5 - - 0,0
17.09.2019 19:00:00 11,9 5,8 - - 0,0
17.09.2019 18:00:00 13,2 5,1 - - 0,0
17.09.2019 17:00:00 13,8 3,2 - - 0,0
17.09.2019 16:00:00 13,7 4,0 - - 0,0
17.09.2019 15:00:00 14,3 2,8 - - 0,0
17.09.2019 14:00:00 13,3 2,8 - - 0,0
17.09.2019 13:00:00 12,3 3,4 - - 0,0
17.09.2019 12:00:00 12,6 2,3 - - 0,0
17.09.2019 11:00:00 11,4 4,3 - - 0,0
17.09.2019 10:00:00 10,2 8,5 13,0 14,0 0,0
17.09.2019 09:00:00 6,4 6,4 - - 0,0
17.09.2019 08:00:00 2,9 2,9 - - 0,0
17.09.2019 07:00:00 2,7 2,7 - - 0,0
17.09.2019 06:00:00 2,9 2,9 - - 0,2
17.09.2019 05:00:00 3,1 3,0 - - 0,0
17.09.2019 04:00:00 3,7 3,6 - - 0,0
17.09.2019 03:00:00 3,8 3,8 - - 0,0
17.09.2019 02:00:00 3,5 3,4 - - 0,0
17.09.2019 01:00:00 3,7 3,5 - - 0,0
17.09.2019 00:00:00 4,4 4,2 - - 0,0
16.09.2019 23:00:00 4,8 4,5 - - 0,0
16.09.2019 22:00:00 5,4 4,7 - - 0,0
16.09.2019 21:00:00 7,3 5,0 - - 0,0
16.09.2019 20:00:00 10,7 5,4 - - 0,0
16.09.2019 19:00:00 11,1 5,6 - - 0,0
16.09.2019 18:00:00 12,3 6,1 - - 0,0
16.09.2019 17:00:00 13,3 7,3 - - 0,0
16.09.2019 16:00:00 14,7 6,7 - - 0,0
16.09.2019 15:00:00 13,7 6,3 - - 0,0
16.09.2019 14:00:00 13,7 6,9 - - 0,0
16.09.2019 13:00:00 13,3 7,6 - - 0,0
16.09.2019 12:00:00 11,7 7,4 - - 0,0
16.09.2019 11:00:00 11,1 7,6 - - 0,0
16.09.2019 10:00:00 8,6 8,5 13,7 14,2 0,0
16.09.2019 09:00:00 3,4 3,4 - - 0,0
16.09.2019 08:00:00 0,9 0,9 - - 0,0
16.09.2019 07:00:00 0,0 -0,1 - - 0,0
16.09.2019 06:00:00 0,3 0,2 - - 0,0
16.09.2019 05:00:00 0,6 0,5 - - 0,0
16.09.2019 04:00:00 1,1 0,9 - - 0,0
16.09.2019 03:00:00 1,7 1,5 - - 0,0
16.09.2019 02:00:00 2,4 2,2 - - 0,0
16.09.2019 01:00:00 2,8 2,5 - - 0,0
16.09.2019 00:00:00 3,7 3,3 - - 0,0
15.09.2019 23:00:00 5,0 4,6 - - 0,0
15.09.2019 22:00:00 5,7 5,0 - - 0,0
15.09.2019 21:00:00 6,9 6,1 - - 0,0
15.09.2019 20:00:00 8,8 6,6 - - 0,0
15.09.2019 19:00:00 10,8 7,5 - - 0,0
15.09.2019 18:00:00 11,8 7,1 - - 0,0
15.09.2019 17:00:00 12,8 7,9 - - 0,0
15.09.2019 16:00:00 12,2 7,4 - - 0,0
15.09.2019 15:00:00 13,1 8,1 - - 0,0
15.09.2019 14:00:00 11,8 7,9 - - 0,0
15.09.2019 13:00:00 11,2 7,5 - - 0,0
15.09.2019 12:00:00 10,7 8,1 - - 0,2
15.09.2019 11:00:00 10,6 7,9 - - 0,0
15.09.2019 10:00:00 10,4 7,1 14,2 14,4 0,0
15.09.2019 09:00:00 10,0 7,0 - - 0,0
15.09.2019 08:00:00 9,6 7,7 - - 0,0
15.09.2019 07:00:00 10,0 7,9 - - 0,0
15.09.2019 06:00:00 10,4 9,1 - - 0,0
15.09.2019 05:00:00 10,6 8,8 - - 0,0
15.09.2019 04:00:00 11,4 10,2 - - 0,0
15.09.2019 03:00:00 12,0 11,1 - - 0,8
15.09.2019 02:00:00 13,3 12,8 - - 0,4
15.09.2019 01:00:00 13,6 12,4 - - 0,0
15.09.2019 00:00:00 13,0 12,2 - - 0,6
14.09.2019 23:00:00 12,9 11,5 - - 0,2
14.09.2019 22:00:00 14,3 9,0 - - 0,0
14.09.2019 21:00:00 13,3 8,6 - - 0,0
14.09.2019 20:00:00 13,1 9,2 - - 0,0
14.09.2019 19:00:00 13,4 8,5 - - 0,0
14.09.2019 18:00:00 14,2 7,8 - - 0,0
14.09.2019 17:00:00 15,0 8,2 - - 0,0
14.09.2019 16:00:00 14,4 8,4 - - 0,0
14.09.2019 15:00:00 14,6 8,1 - - 0,0
14.09.2019 14:00:00 14,0 9,5 - - 0,0
14.09.2019 13:00:00 13,5 9,8 - - 0,0
14.09.2019 12:00:00 13,2 8,1 - - 0,0
14.09.2019 11:00:00 13,2 8,5 - - 0,0
14.09.2019 10:00:00 12,1 8,5 14,2 14,5 0,0
14.09.2019 09:00:00 10,1 10,1 - - 0,0
14.09.2019 08:00:00 6,0 6,0 - - 0,0
14.09.2019 07:00:00 4,5 4,5 - - 0,0
14.09.2019 06:00:00 3,8 3,7 - - 0,0
14.09.2019 05:00:00 4,1 4,0 - - 0,0
14.09.2019 04:00:00 4,1 4,1 - - 0,0
14.09.2019 03:00:00 4,0 3,9 - - 0,0
14.09.2019 02:00:00 3,2 3,0 - - 0,0
14.09.2019 01:00:00 3,9 3,6 - - 0,0
14.09.2019 00:00:00 4,4 4,0 - - 0,0
13.09.2019 23:00:00 4,9 4,4 - - 0,0
13.09.2019 22:00:00 6,2 5,5 - - 0,0
13.09.2019 21:00:00 7,6 6,8 - - 0,0
13.09.2019 20:00:00 9,0 7,5 - - 0,0
13.09.2019 19:00:00 12,1 9,1 - - 0,0
13.09.2019 18:00:00 13,3 8,9 - - 0,0
13.09.2019 17:00:00 14,4 6,7 - - 0,0
13.09.2019 16:00:00 15,6 8,0 - - 0,0
13.09.2019 15:00:00 15,5 8,3 - - 0,0
13.09.2019 14:00:00 15,2 8,3 - - 0,0
13.09.2019 13:00:00 13,2 8,9 - - 0,0
13.09.2019 12:00:00 11,8 8,7 - - 0,0
13.09.2019 11:00:00 11,7 9,9 - - 0,0
13.09.2019 10:00:00 10,4 10,4 14,7 14,4 0,0
13.09.2019 09:00:00 8,1 8,1 - - 0,0
13.09.2019 08:00:00 4,4 4,4 - - 0,0
13.09.2019 07:00:00 3,5 3,5 - - 0,0
13.09.2019 06:00:00 2,5 2,5 - - 0,0
13.09.2019 05:00:00 2,7 2,7 - - 0,0

tt = Température de l'air
td = dewpoint
tt -20cm = Température de l'air -20cm
tt -100cm = Température de l'air -100cm
rr = Quantités de précipitations

stations d'obs. à proximité